CA3PBK-13 Weather Reports


time (UTC)temp
F
wind
direction
speed
knots
gust
knots
rain 1hr
in
rain 24hr
in
rain mn
in
humidity
%
barometer
mb
20260507160107 59 90 0.0 1.7 0.00 0.37 0.00 1 935.3
20260507155907 59 135 0.0 1.7 0.00 0.37 0.00 1 935.3
20260507155707 60 45 0.0 1.7 0.00 0.37 0.00 1 935.3
20260507155509 60 90 0.0 2.6 0.00 0.37 0.00 1 935.4
20260507155308 61 45 0.0 2.6 0.00 0.37 0.00 1 935.4
20260507155108 60 135 0.0 2.6 0.00 0.37 0.00 1 935.4
20260507154907 59 0 0.0 2.6 0.00 0.37 0.00 1 935.4
20260507154707 59 0 0.9 2.6 0.00 0.37 0.00 1 935.4
20260507154509 60 315 0.0 1.7 0.00 0.37 0.00 1 935.4
20260507154307 60 45 0.0 1.7 0.00 0.37 0.00 1 935.5
20260507154107 60 0 0.0 1.7 0.00 0.37 0.00 1 935.4
20260507153907 59 0 0.0 1.7 0.00 0.37 0.00 1 935.4
20260507153707 59 225 0.0 1.7 0.00 0.37 0.00 1 935.3
20260507153509 59 315 0.0 1.7 0.00 0.37 0.00 1 935.3
20260507153307 59 315 0.0 1.7 0.00 0.37 0.00 1 935.3
20260507153108 59 315 0.0 1.7 0.00 0.37 0.00 1 935.3
20260507152908 59 225 0.0 1.7 0.00 0.37 0.00 1 935.3
20260507152707 59 45 0.0 2.6 0.00 0.37 0.00 1 935.4
20260507152509 59 315 0.0 2.6 0.00 0.37 0.00 1 935.4
20260507152307 59 90 0.0 2.6 0.00 0.37 0.00 1 935.4
20260507152107 59 225 0.0 2.6 0.00 0.37 0.00 1 935.4
20260507151907 58 0 0.9 2.6 0.00 0.37 0.00 1 935.5
20260507151707 58 315 0.0 2.6 0.00 0.37 0.00 1 935.5
20260507151509 58 315 0.0 2.6 0.00 0.37 0.00 1 935.6
20260507151307 58 315 0.0 1.7 0.00 0.37 0.00 1 935.7
20260507151107 57 315 0.0 1.7 0.00 0.37 0.00 1 935.8
20260507150908 57 45 0.0 1.7 0.00 0.37 0.00 1 935.9
20260507150708 57 0 0.0 1.7 0.00 0.37 0.00 1 935.8
20260507150509 57 45 0.0 1.7 0.00 0.37 0.00 1 935.8
20260507150307 56 0 0.0 1.7 0.00 0.37 0.00 1 935.8
20260507150107 56 315 0.0 1.7 0.00 0.37 0.00 1 935.8
20260507145907 55 135 0.0 0.9 0.00 0.37 0.00 1 935.9
20260507145707 55 90 0.0 0.9 0.00 0.37 0.00 1 936.1
20260507145509 55 225 0.0 0.9 0.00 0.37 0.00 1 936.2
20260507145307 55 135 0.0 1.7 0.00 0.37 0.00 1 936.2
20260507145107 54 225 0.0 1.7 0.00 0.37 0.00 1 936.3
20260507144907 54 180 0.0 1.7 0.00 0.37 0.00 1 936.3
20260507144708 54 315 0.0 1.7 0.00 0.37 0.00 1 936.3
20260507144307 54 180 0.0 1.7 0.00 0.37 0.00 1 936.3
20260507144107 55 135 0.0 1.7 0.00 0.37 0.00 1 936.4
20260507143907 54 45 0.0 1.7 0.00 0.37 0.00 1 936.5
20260507143707 53 225 0.0 1.7 0.00 0.37 0.00 1 936.5
20260507143509 54 180 0.0 1.7 0.00 0.37 0.00 1 936.6
20260507143307 53 90 0.0 1.7 0.00 0.37 0.00 1 936.7
20260507143107 53 180 0.0 1.7 0.00 0.37 0.00 1 936.7
20260507142907 53 180 0.0 1.7 0.00 0.37 0.00 1 936.5
20260507142707 53 135 0.0 1.7 0.00 0.37 0.00 1 936.7
20260507142509 52 180 0.0 1.7 0.00 0.37 0.00 1 936.7
20260507142307 53 180 0.0 1.7 0.00 0.37 0.00 1 936.6
20260507142107 53 225 0.0 1.7 0.00 0.37 0.00 1 936.7
20260507141907 53 180 0.0 1.7 0.00 0.37 0.00 1 936.7
20260507141707 53 135 0.0 2.6 0.00 0.37 0.00 1 936.7
20260507141509 53 180 0.0 2.6 0.00 0.37 0.00 1 936.7
20260507141307 53 135 0.0 2.6 0.00 0.37 0.00 1 936.7
20260507141107 52 180 0.0 2.6 0.00 0.37 0.00 1 936.7
20260507140907 53 225 0.0 2.6 0.00 0.37 0.00 1 936.6
20260507140707 53 135 0.0 2.6 0.00 0.37 0.00 1 936.7
20260507140509 53 135 0.0 2.6 0.00 0.37 0.00 1 936.7
20260507140308 52 135 0.0 2.6 0.00 0.37 0.00 1 936.6
20260507140107 52 135 0.9 2.6 0.00 0.37 0.00 1 936.6
20260507135907 52 225 0.0 2.6 0.00 0.37 0.00 1 936.7
20260507135707 52 180 0.9 2.6 0.00 0.37 0.00 1 936.6
20260507135509 52 90 0.9 2.6 0.00 0.37 0.00 1 936.6
20260507135307 52 135 0.0 2.6 0.00 0.37 0.00 1 936.7
20260507135107 52 180 0.0 2.6 0.00 0.37 0.00 1 936.7
20260507134907 52 180 0.0 1.7 0.00 0.37 0.00 1 936.7
20260507134707 52 180 0.0 2.6 0.00 0.37 0.00 1 936.7
20260507134509 52 180 0.0 2.6 0.00 0.37 0.00 1 936.7
20260507134308 52 180 0.0 2.6 0.00 0.37 0.00 1 936.7
20260507134108 52 135 0.0 2.6 0.00 0.37 0.00 1 936.6
20260507133907 52 225 0.9 2.6 0.00 0.37 0.00 1 936.6
20260507133707 52 225 0.9 2.6 0.00 0.37 0.00 1 936.6
20260507133509 52 135 0.0 2.6 0.00 0.37 0.00 1 936.6
20260507133307 52 225 0.0 1.7 0.00 0.37 0.00 1 936.7
20260507133107 52 180 0.0 1.7 0.00 0.37 0.00 1 936.7
20260507132907 51 180 0.0 2.6 0.00 0.37 0.00 1 936.7
20260507132707 51 180 0.0 2.6 0.00 0.37 0.00 1 936.7
20260507132509 52 225 0.0 2.6 0.00 0.37 0.00 1 936.7
20260507132308 52 180 0.0 2.6 0.00 0.37 0.00 1 936.7
20260507132108 51 180 0.9 2.6 0.00 0.37 0.00 1 936.8
20260507131908 51 180 0.0 2.6 0.00 0.37 0.00 1 936.7
20260507131707 51 180 0.9 2.6 0.00 0.37 0.00 1 936.6
20260507131509 51 225 0.9 2.6 0.00 0.37 0.00 1 936.6
20260507131307 52 225 0.0 1.7 0.00 0.37 0.00 1 936.7
20260507131107 51 180 0.0 1.7 0.00 0.37 0.00 1 936.8
20260507130907 51 180 0.0 1.7 0.00 0.37 0.00 1 936.6
20260507130707 52 225 0.0 1.7 0.00 0.37 0.00 1 936.5
20260507130509 52 180 0.0 1.7 0.00 0.37 0.00 1 936.6
20260507130307 51 225 0.0 1.7 0.00 0.37 0.00 1 936.8
20260507130108 51 135 0.0 1.7 0.00 0.37 0.00 1 936.8
20260507125908 51 180 0.0 1.7 0.00 0.37 0.00 1 936.8
20260507125707 51 135 0.0 1.7 0.00 0.37 0.00 1 936.6
20260507125509 51 225 0.0 1.7 0.00 0.37 0.00 1 936.6
20260507125307 51 90 0.0 1.7 0.00 0.37 0.00 1 936.6
20260507125107 51 135 0.0 1.7 0.00 0.37 0.00 1 936.6
20260507124907 51 45 0.0 1.7 0.00 0.37 0.00 1 936.6
20260507124707 51 45 0.0 1.7 0.00 0.37 0.00 1 936.5
20260507124511 51 180 0.0 1.7 0.00 0.37 0.00 1 936.5
20260507124307 51 135 0.0 1.7 0.00 0.37 0.00 1 936.5
20260507124107 51 45 0.0 1.7 0.00 0.37 0.00 1 936.5
20260507123908 51 135 0.0 1.7 0.00 0.37 0.00 1 936.5
20260507123708 51 315 0.0 1.7 0.00 0.37 0.00 1 936.4
20260507123509 51 45 0.0 2.6 0.00 0.37 0.00 1 936.5
20260507123307 51 45 0.0 2.6 0.00 0.37 0.00 1 936.5
20260507123107 51 180 0.0 2.6 0.00 0.37 0.00 1 936.4
20260507122708 51 45 0.0 2.6 0.00 0.37 0.00 1 936.3
20260507122509 52 135 0.0 1.7 0.00 0.37 0.00 1 936.3
20260507122308 52 225 0.0 1.7 0.00 0.37 0.00 1 936.3
20260507122107 52 180 0.0 1.7 0.00 0.37 0.00 1 936.3
20260507121907 52 225 0.0 1.7 0.00 0.37 0.00 1 936.3
20260507121708 52 45 0.0 1.7 0.00 0.37 0.00 1 936.2
20260507121509 52 0 0.0 1.7 0.00 0.37 0.00 1 936.1
20260507121307 52 45 0.0 0.9 0.00 0.37 0.00 1 936.0
20260507121107 52 45 0.0 0.9 0.00 0.37 0.00 1 936.1
20260507120907 52 225 0.0 0.9 0.00 0.37 0.00 1 936.0
20260507120707 52 315 0.0 0.9 0.00 0.37 0.00 1 936.0
20260507120509 53 45 0.0 0.9 0.00 0.37 0.00 1 935.9
20260507120307 53 225 0.0 0.0 0.00 0.37 0.00 1 935.9
20260507120107 53 225 0.0 0.0 0.00 0.37 0.00 1 935.8
20260507115907 53 315 0.0 0.0 0.00 0.37 0.00 1 935.8
20260507115708 52 225 0.0 0.9 0.00 0.37 0.00 1 935.8
20260507115509 52 45 0.0 0.9 0.00 0.37 0.00 1 935.8
20260507115307 52 315 0.0 0.9 0.00 0.37 0.00 1 935.8
20260507115107 52 45 0.0 0.9 0.00 0.37 0.00 1 935.8
20260507114907 51 135 0.0 0.9 0.00 0.37 0.00 1 935.9
20260507114707 52 135 0.0 0.0 0.00 0.37 0.00 1 935.8
20260507114509 52 0 0.0 0.0 0.00 0.37 0.00 1 935.7
20260507114307 52 135 0.0 0.0 0.00 0.37 0.00 1 935.7
20260507114107 52 225 0.0 0.0 0.00 0.37 0.00 1 935.7
20260507113907 52 225 0.0 0.9 0.00 0.37 0.00 1 935.6
20260507113707 52 45 0.0 0.9 0.00 0.37 0.00 1 935.8
20260507113509 52 225 0.0 0.9 0.00 0.37 0.00 1 935.8
20260507113308 51 225 0.0 0.9 0.00 0.37 0.00 1 935.8
20260507113107 52 135 0.0 0.9 0.00 0.37 0.00 1 935.7
20260507112908 52 45 0.0 0.9 0.00 0.37 0.00 1 935.8
20260507112707 52 0 0.0 0.9 0.00 0.37 0.00 1 935.8
20260507112509 51 45 0.0 0.9 0.00 0.37 0.00 1 935.8
20260507112307 51 135 0.0 0.9 0.00 0.37 0.00 1 935.7
20260507112107 52 0 0.0 0.9 0.00 0.37 0.00 1 935.7
20260507111907 51 45 0.0 0.9 0.00 0.37 0.00 1 935.8
20260507111707 51 180 0.0 0.9 0.00 0.37 0.00 1 935.8
20260507111509 52 135 0.0 0.0 0.00 0.37 0.00 1 935.7
20260507111308 52 315 0.0 0.0 0.00 0.37 0.00 1 935.7
20260507111107 52 0 0.0 0.0 0.00 0.37 0.00 1 935.7
20260507110907 52 0 0.0 0.0 0.00 0.37 0.00 1 935.7
20260507110707 52 225 0.0 0.0 0.00 0.37 0.00 1 935.7
20260507110509 52 0 0.0 0.9 0.00 0.37 0.00 1 935.7
20260507110307 52 225 0.0 0.9 0.00 0.37 0.00 1 935.6
20260507110107 52 225 0.0 0.9 0.00 0.37 0.00 1 935.6
20260507105907 52 225 0.0 0.9 0.00 0.37 0.00 1 935.6
20260507105708 52 225 0.0 0.9 0.00 0.37 0.00 1 935.6
20260507105509 52 225 0.0 0.9 0.00 0.37 0.00 1 935.5
20260507105308 52 45 0.0 0.9 0.00 0.37 0.00 1 935.5
20260507105109 52 45 0.0 0.9 0.00 0.37 0.00 1 935.6
20260507104907 52 45 0.0 0.9 0.00 0.37 0.00 1 935.4
20260507104707 51 135 0.0 0.9 0.00 0.37 0.00 1 935.4
20260507104510 51 135 0.0 0.9 0.00 0.37 0.00 1 935.4
20260507104307 51 135 0.0 0.9 0.00 0.37 0.00 1 935.4
20260507104107 51 135 0.0 0.9 0.00 0.37 0.00 1 935.4
20260507103907 51 180 0.0 0.9 0.00 0.37 0.00 1 935.5
20260507103707 51 135 0.0 0.9 0.00 0.37 0.00 1 935.4
20260507103509 51 225 0.0 0.9 0.00 0.37 0.00 1 935.4
20260507103307 51 180 0.0 0.9 0.00 0.37 0.00 1 935.4
20260507103108 51 135 0.0 0.9 0.00 0.37 0.00 1 935.4
20260507102908 51 225 0.0 0.9 0.00 0.37 0.00 1 935.2
20260507102707 52 135 0.0 0.0 0.00 0.37 0.00 1 935.3
20260507102510 52 135 0.0 0.0 0.00 0.37 0.00 1 935.4
20260507102308 52 225 0.0 0.0 0.00 0.37 0.00 1 935.3
20260507102108 52 225 0.0 0.0 0.00 0.37 0.00 1 935.3
20260507101907 52 225 0.0 0.0 0.00 0.37 0.00 1 935.4
20260507101707 52 225 0.0 0.0 0.00 0.37 0.00 1 935.4
20260507101509 52 180 0.0 0.0 0.00 0.37 0.00 1 935.4
20260507101307 52 225 0.0 0.0 0.00 0.37 0.00 1 935.4
20260507101108 52 225 0.0 0.0 0.00 0.37 0.00 1 935.4
20260507100908 52 225 0.0 0.0 0.00 0.37 0.00 1 935.4
20260507100707 52 225 0.0 0.0 0.00 0.37 0.00 1 935.3
20260507100509 52 0 0.0 0.0 0.00 0.37 0.00 1 935.3
20260507100308 52 45 0.0 0.0 0.00 0.37 0.00 1 935.3
20260507100107 51 90 0.0 0.0 0.00 0.37 0.00 1 935.3
20260507095907 51 90 0.0 0.9 0.00 0.37 0.00 1 935.3
20260507095707 51 90 0.0 0.9 0.00 0.37 0.00 1 935.3
20260507095509 51 135 0.0 1.7 0.00 0.37 0.00 1 935.3
20260507095307 51 135 0.0 1.7 0.00 0.37 0.00 1 935.3
20260507095107 50 135 0.0 1.7 0.00 0.37 0.00 1 935.3
20260507094908 50 180 0.0 1.7 0.00 0.37 0.00 1 935.3
20260507094708 50 225 0.0 1.7 0.00 0.37 0.00 1 935.3
20260507094509 51 180 0.0 1.7 0.00 0.37 0.00 1 935.3
20260507094307 50 180 0.0 1.7 0.00 0.37 0.00 1 935.3
20260507094108 51 225 0.0 1.7 0.00 0.37 0.00 1 935.3
20260507093908 51 180 0.0 1.7 0.00 0.37 0.00 1 935.3
20260507093708 51 225 0.0 0.9 0.00 0.37 0.00 1 935.3
20260507093509 51 180 0.0 0.9 0.00 0.37 0.00 1 935.2
20260507093307 51 225 0.0 0.9 0.00 0.37 0.00 1 935.2
20260507093107 51 180 0.0 1.7 0.00 0.37 0.00 1 935.1
20260507092908 51 180 0.0 1.7 0.00 0.37 0.00 1 935.1
20260507092708 50 180 0.0 1.7 0.00 0.37 0.00 1 935.1
20260507092509 51 225 0.0 1.7 0.00 0.37 0.00 1 935.0
20260507092307 51 180 0.0 1.7 0.00 0.37 0.00 1 934.9
20260507092107 51 180 0.0 0.9 0.00 0.37 0.00 1 934.9
20260507091908 51 180 0.0 0.9 0.00 0.37 0.00 1 934.8
20260507091707 51 180 0.0 0.9 0.00 0.37 0.00 1 934.8
20260507091509 51 180 0.0 0.9 0.00 0.37 0.00 1 934.9
20260507091308 51 180 0.0 0.9 0.00 0.37 0.00 1 934.8
20260507091107 51 135 0.0 0.9 0.00 0.37 0.00 1 934.8
20260507090907 51 135 0.0 0.0 0.00 0.37 0.00 1 934.7
20260507090708 51 135 0.0 0.9 0.00 0.37 0.00 1 934.7
20260507090509 51 135 0.0 0.9 0.00 0.37 0.00 1 934.6
20260507090307 51 45 0.0 0.9 0.00 0.37 0.00 1 934.6
20260507090108 51 45 0.0 0.9 0.00 0.37 0.00 1 934.6
20260507085908 51 180 0.0 0.9 0.00 0.37 0.00 1 934.6
20260507085708 51 180 0.0 0.9 0.00 0.37 0.00 1 934.6
20260507085509 51 135 0.0 0.9 0.00 0.37 0.00 1 934.5
20260507085307 51 180 0.0 0.9 0.00 0.37 0.00 1 934.6
20260507085107 51 180 0.0 1.7 0.00 0.37 0.00 1 934.6
20260507084907 51 225 0.0 1.7 0.00 0.37 0.00 1 934.7
20260507084708 51 180 0.0 1.7 0.00 0.37 0.00 1 934.6
20260507084509 50 135 0.0 1.7 0.00 0.37 0.00 1 934.6
20260507084307 51 135 0.0 1.7 0.00 0.37 0.00 1 934.6
20260507084107 51 135 0.0 1.7 0.00 0.37 0.00 1 934.6
20260507083907 51 135 0.0 1.7 0.00 0.37 0.00 1 934.7
20260507083707 51 135 0.0 0.9 0.00 0.37 0.00 1 934.7
20260507083509 51 135 0.0 0.9 0.00 0.37 0.00 1 934.7
20260507083308 51 135 0.0 0.9 0.00 0.37 0.00 1 934.7
20260507083108 51 135 0.0 0.9 0.00 0.37 0.00 1 934.7
20260507082907 51 225 0.0 0.9 0.00 0.37 0.00 1 934.6
20260507082707 51 45 0.0 0.9 0.00 0.37 0.00 1 934.7
20260507082509 51 135 0.0 0.9 0.00 0.37 0.00 1 934.6
20260507082308 52 90 0.0 0.9 0.00 0.37 0.00 1 934.6
20260507082107 52 225 0.0 0.0 0.00 0.37 0.00 1 934.6
20260507081907 52 225 0.0 0.0 0.00 0.37 0.00 1 934.6
20260507081707 52 45 0.0 0.0 0.00 0.37 0.00 1 934.7
20260507081509 51 135 0.0 0.0 0.00 0.37 0.00 1 934.7
20260507081307 52 45 0.0 0.0 0.00 0.37 0.00 1 934.6
20260507081108 52 315 0.0 0.9 0.00 0.37 0.00 1 934.7
20260507080908 51 0 0.0 0.9 0.00 0.37 0.00 1 934.7
20260507080708 51 0 0.0 0.9 0.00 0.37 0.00 1 934.7
20260507080509 51 45 0.0 0.9 0.00 0.37 0.00 1 934.7
20260507080308 50 180 0.0 0.9 0.00 0.37 0.00 1 934.7
20260507080107 51 180 0.0 0.9 0.00 0.37 0.00 1 934.7
20260507075907 51 180 0.0 1.7 0.00 0.37 0.00 1 934.7
20260507075707 51 90 0.0 2.6 0.00 0.37 0.00 1 934.7
20260507075509 51 45 0.0 2.6 0.00 0.37 0.00 1 934.8
20260507075308 51 135 0.0 2.6 0.00 0.37 0.00 1 934.8
20260507075108 50 135 0.0 2.6 0.00 0.37 0.00 1 934.9
20260507074908 50 135 0.9 2.6 0.00 0.37 0.00 1 934.9
20260507074708 50 180 0.0 2.6 0.00 0.37 0.00 1 934.9
20260507074509 50 225 0.9 2.6 0.00 0.37 0.00 1 934.8
20260507074308 50 225 0.0 2.6 0.00 0.37 0.00 1 934.9
20260507074108 50 225 0.0 2.6 0.00 0.37 0.00 1 934.8
20260507073907 50 180 0.0 2.6 0.00 0.37 0.00 1 934.8
20260507073707 50 180 0.9 2.6 0.00 0.37 0.00 1 934.8
20260507073509 50 180 0.9 2.6 0.00 0.37 0.00 1 934.8
20260507073307 50 225 0.9 2.6 0.00 0.37 0.00 1 934.8
20260507073108 50 180 0.9 2.6 0.00 0.37 0.00 1 934.8
20260507072908 50 135 0.9 2.6 0.00 0.37 0.00 1 934.8
20260507072708 50 135 0.0 2.6 0.00 0.37 0.00 1 934.8
20260507072509 50 135 0.9 2.6 0.00 0.37 0.00 1 934.8
20260507072308 50 135 0.0 2.6 0.00 0.37 0.00 1 934.8
20260507072108 50 225 0.0 2.6 0.00 0.37 0.00 1 934.8
20260507071908 50 225 0.0 2.6 0.00 0.37 0.00 1 934.6
20260507071708 50 135 0.9 2.6 0.00 0.37 0.00 1 934.6
20260507071509 50 135 0.9 2.6 0.00 0.37 0.00 1 934.6
20260507071308 50 225 0.9 2.6 0.00 0.37 0.00 1 934.5
20260507071108 50 135 0.9 2.6 0.00 0.37 0.00 1 934.6
20260507070908 50 90 0.0 2.6 0.00 0.37 0.00 1 934.5
20260507070707 50 135 0.9 2.6 0.00 0.37 0.00 1 934.5
20260507070509 50 135 0.9 2.6 0.00 0.37 0.00 1 934.6
20260507070307 50 45 0.0 1.7 0.00 0.37 0.00 1 934.6
20260507070108 50 45 0.0 1.7 0.00 0.37 0.00 1 934.6
20260507065908 50 135 0.0 1.7 0.00 0.37 0.00 1 934.5
20260507065708 50 315 0.0 1.7 0.00 0.37 0.00 1 934.4
20260507065510 51 315 0.0 2.6 0.00 0.37 0.00 1 934.5
20260507065308 51 135 0.0 2.6 0.00 0.37 0.00 1 934.4
20260507065108 50 225 0.0 2.6 0.00 0.37 0.00 1 934.4
20260507064908 50 135 0.0 2.6 0.00 0.37 0.00 1 934.4
20260507064707 50 135 0.9 2.6 0.00 0.37 0.00 1 934.3
20260507064509 50 135 0.9 2.6 0.00 0.37 0.00 1 934.3
20260507064307 50 225 0.0 1.7 0.00 0.37 0.00 1 934.4
20260507064108 51 135 0.0 2.6 0.00 0.37 0.00 1 934.4
20260507063908 51 45 0.0 2.6 0.00 0.37 0.00 1 934.3
20260507063708 51 135 0.0 2.6 0.00 0.37 0.00 1 934.2
20260507063509 51 225 0.0 2.6 0.00 0.37 0.00 1 934.3
20260507063308 51 225 0.9 2.6 0.00 0.37 0.00 1 934.2
20260507063108 51 225 0.0 2.6 0.00 0.37 0.00 1 934.3
20260507062907 51 225 0.0 2.6 0.00 0.37 0.00 1 934.2
20260507062707 51 225 0.9 1.7 0.00 0.37 0.00 1 934.3
20260507062509 51 180 0.0 2.6 0.00 0.37 0.00 1 934.3
20260507062307 51 315 0.0 2.6 0.00 0.37 0.00 1 934.2
20260507062108 51 225 0.0 2.6 0.00 0.37 0.00 1 934.3
20260507061908 51 225 0.0 2.6 0.00 0.37 0.00 1 934.2
20260507061708 51 315 0.9 2.6 0.00 0.37 0.00 1 934.2
20260507061509 51 225 0.9 2.6 0.00 0.37 0.00 1 934.2
20260507061308 51 135 0.9 2.6 0.00 0.37 0.00 1 934.2
20260507061107 51 135 0.0 2.6 0.00 0.37 0.00 1 934.2
20260507060907 51 225 0.9 2.6 0.00 0.37 0.00 1 934.2
20260507060708 52 225 0.0 2.6 0.00 0.37 0.00 1 934.2
20260507060509 52 135 0.0 2.6 0.00 0.37 0.00 1 934.2
20260507060308 51 180 0.0 2.6 0.00 0.37 0.00 1 934.1
20260507060108 51 225 0.0 2.6 0.00 0.37 0.00 1 934.1
20260507055908 51 135 0.0 2.6 0.00 0.37 0.00 1 934.2
20260507055708 51 180 0.9 2.6 0.00 0.37 0.00 1 934.2
20260507055509 51 225 0.9 2.6 0.00 0.37 0.00 1 934.2
20260507055307 52 180 0.0 2.6 0.00 0.37 0.00 1 934.1
20260507055108 52 180 0.0 2.6 0.00 0.37 0.00 1 934.1
20260507054908 51 135 0.0 2.6 0.00 0.37 0.00 1 934.1
20260507054708 52 180 0.0 2.6 0.00 0.37 0.00 1 934.1
20260507054509 51 180 0.9 2.6 0.00 0.37 0.00 1 934.1
20260507054308 52 135 0.9 2.6 0.00 0.37 0.00 1 934.1
20260507054108 52 225 0.0 2.6 0.00 0.37 0.00 1 934.0
20260507053908 52 135 0.0 2.6 0.00 0.37 0.00 1 934.0
20260507053708 52 180 0.0 3.5 0.00 0.37 0.00 1 934.0
20260507053509 52 45 0.0 3.5 0.00 0.37 0.00 1 934.0
20260507053308 51 135 0.0 3.5 0.00 0.37 0.00 1 933.9
20260507053108 51 135 0.9 3.5 0.00 0.37 0.00 1 934.0
20260507052908 51 180 0.9 3.5 0.00 0.37 0.00 1 933.9
20260507052708 51 135 0.9 3.5 0.00 0.37 0.00 1 934.0
20260507052509 51 135 0.9 3.5 0.00 0.37 0.00 1 934.0
20260507052308 51 135 0.9 3.5 0.00 0.37 0.00 1 933.9
20260507052108 51 45 0.9 3.5 0.00 0.37 0.00 1 933.9
20260507051908 51 135 1.7 3.5 0.00 0.37 0.00 1 934.0
20260507051708 52 45 0.9 3.5 0.00 0.37 0.00 1 934.0
20260507051509 52 135 0.9 3.5 0.00 0.37 0.00 1 933.9
20260507051308 52 45 1.7 3.5 0.00 0.37 0.00 1 933.9
20260507051108 52 45 0.9 2.6 0.00 0.37 0.00 1 933.9
20260507050907 52 225 0.0 2.6 0.00 0.37 0.00 1 933.9
20260507050707 52 45 0.0 2.6 0.00 0.37 0.00 1 933.8
20260507050509 52 315 0.0 2.6 0.00 0.37 0.00 1 933.9
20260507050308 51 135 0.9 2.6 0.00 0.37 0.00 1 933.9
20260507050108 52 135 0.9 2.6 0.00 0.37 0.00 1 933.8
20260507045908 52 315 0.0 2.6 0.00 0.37 0.00 1 933.9
20260507045708 51 225 0.9 2.6 0.00 0.37 0.00 1 933.9
20260507045509 51 225 0.0 2.6 0.00 0.37 0.00 1 933.9
20260507045308 51 180 0.9 2.6 0.00 0.37 0.00 1 934.0
20260507045108 51 225 0.9 3.5 0.00 0.37 0.00 1 933.9
20260507044908 51 225 0.9 3.5 0.00 0.37 0.00 1 933.9
20260507044708 51 180 0.9 3.5 0.00 0.37 0.00 1 933.9
20260507044509 51 225 0.9 3.5 0.00 0.37 0.00 1 933.9
20260507044308 51 180 1.7 3.5 0.00 0.37 0.00 1 933.9
20260507044108 51 180 0.9 3.5 0.00 0.37 0.00 1 933.9
20260507043509 52 180 0.0 2.6 0.00 0.37 0.00 1 933.9
20260507043308 52 225 0.0 2.6 0.00 0.37 0.00 1 934.1
20260507043108 52 315 0.9 2.6 0.00 0.37 0.00 1 934.1
20260507042908 52 225 0.0 2.6 0.00 0.37 0.00 1 934.1
20260507042708 52 225 0.0 2.6 0.00 0.37 0.00 1 934.0
20260507042509 52 270 0.0 2.6 0.00 0.37 0.00 1 933.9
20260507042308 52 225 0.9 2.6 0.00 0.37 0.00 1 933.9
20260507042108 52 270 0.9 2.6 0.00 0.37 0.00 1 933.9
20260507041908 52 180 0.9 2.6 0.00 0.37 0.00 1 933.9
20260507041509 53 180 0.0 2.6 0.00 0.37 0.00 1 933.9
20260507041308 53 180 0.0 2.6 0.00 0.37 0.00 1 933.9
20260507041108 53 225 0.0 2.6 0.00 0.37 0.00 1 934.0
20260507040909 53 225 0.0 1.7 0.00 0.37 0.00 1 933.9
20260507040708 53 180 0.0 0.9 0.00 0.37 0.00 1 933.9
20260507040510 53 225 0.0 0.9 0.00 0.37 0.00 1 934.0
20260507040308 54 135 0.0 0.9 0.00 0.37 0.00 1 934.0
20260507040108 54 45 0.0 0.9 0.00 0.37 0.00 1 934.0
20260507035908 53 45 0.0 0.9 0.00 0.37 0.00 1 934.1
20260507035707 53 135 0.0 2.6 0.00 0.37 0.00 1 934.0
20260507035509 53 135 0.0 2.6 0.00 0.37 0.00 1 934.0
20260507035308 53 90 0.0 2.6 0.00 0.37 0.00 1 934.1
20260507035108 52 45 0.0 4.3 0.00 0.37 0.00 1 934.2
20260507034908 52 180 0.0 4.3 0.00 0.37 0.00 1 934.2
20260507034709 52 180 0.9 4.3 0.00 0.37 0.00 1 934.3
20260507034509 51 180 0.9 4.3 0.00 0.37 0.00 1 934.3
20260507034308 51 180 1.7 4.3 0.00 0.37 0.00 1 934.3
20260507034108 51 180 0.9 4.3 0.00 0.37 0.00 1 934.3
20260507033908 51 180 1.7 4.3 0.00 0.37 0.00 1 934.3
20260507033708 52 315 0.9 3.5 0.00 0.37 0.00 1 934.3
20260507033509 52 225 0.9 3.5 0.00 0.37 0.00 1 934.3
20260507033308 52 180 0.0 3.5 0.00 0.37 0.00 1 934.2
20260507033108 52 315 0.0 3.5 0.00 0.37 0.00 1 934.2
20260507032908 51 225 1.7 3.5 0.00 0.37 0.00 1 934.3
20260507032708 52 225 0.9 4.3 0.00 0.37 0.00 1 934.3
20260507032509 52 180 0.9 4.3 0.00 0.37 0.00 1 934.3
20260507032308 51 225 0.9 4.3 0.00 0.37 0.00 1 934.2
20260507032108 51 180 1.7 4.3 0.00 0.37 0.00 1 934.2
20260507031908 52 315 0.9 4.3 0.01 0.37 0.00 1 934.1
20260507031708 51 180 1.7 4.3 0.01 0.37 0.00 1 934.1
20260507031509 52 225 1.7 4.3 0.01 0.37 0.00 1 934.1
20260507031308 52 225 1.7 4.3 0.01 0.37 0.00 1 934.0
20260507030908 53 180 0.0 2.6 0.01 0.37 0.00 1 934.0
20260507030708 53 135 0.0 3.5 0.01 0.37 0.00 1 933.9
20260507030509 53 90 0.0 3.5 0.01 0.37 0.00 1 933.9
20260507030308 52 135 0.9 4.3 0.01 0.37 0.00 1 933.8
20260507030108 52 135 1.7 4.3 0.01 0.37 0.00 1 933.8
20260507025908 52 180 0.9 4.3 0.01 0.37 0.00 1 933.9
20260507025708 52 180 0.9 4.3 0.01 0.37 0.00 1 933.9
20260507025509 52 135 0.9 4.3 0.01 0.37 0.00 1 933.9
20260507025308 52 180 0.9 3.5 0.01 0.37 0.00 1 933.9
20260507025108 52 225 0.9 3.5 0.01 0.37 0.00 1 933.9
20260507024908 52 225 0.9 3.5 0.01 0.37 0.00 1 933.8
20260507024708 52 45 1.7 4.3 0.01 0.37 0.00 1 933.8
20260507024509 52 180 0.0 4.3 0.01 0.37 0.00 1 933.8
20260507024308 51 225 0.9 4.3 0.01 0.37 0.00 1 933.8
20260507024108 51 180 1.7 4.3 0.01 0.37 0.00 1 933.7
20260507023908 51 135 1.7 5.2 0.01 0.37 0.00 1 933.7
20260507023708 51 180 1.7 5.2 0.01 0.37 0.00 1 933.7
20260507023308 51 225 2.6 6.1 0.02 0.37 0.00 1 933.7
20260507023108 51 270 2.6 6.1 0.02 0.37 0.00 1 933.7
20260507022908 51 135 2.6 6.1 0.02 0.37 0.00 1 933.7
20260507022708 51 180 2.6 6.1 0.03 0.37 0.00 1 933.6
20260507022509 51 225 2.6 6.1 0.03 0.37 0.00 1 933.6
20260507022308 51 225 2.6 5.2 0.03 0.37 0.00 1 933.7
20260507022109 51 180 2.6 5.2 0.03 0.37 0.00 1 933.6
20260507021908 52 225 2.6 5.2 0.02 0.36 0.00 1 933.5
20260507021708 51 225 2.6 5.2 0.02 0.36 0.00 1 933.5
20260507021509 52 180 2.6 5.2 0.02 0.36 0.00 1 933.5
20260507021308 52 225 1.7 5.2 0.02 0.36 0.00 1 933.6
20260507021108 52 180 1.7 5.2 0.02 0.36 0.00 1 933.5
20260507020908 52 225 1.7 4.3 0.02 0.36 0.00 1 933.5
20260507020708 52 180 0.9 4.3 0.02 0.36 0.00 1 933.4
20260507020509 52 180 1.7 4.3 0.02 0.36 0.00 1 933.4
20260507020308 52 135 1.7 4.3 0.02 0.36 0.00 1 933.4
20260507020108 52 225 1.7 3.5 0.02 0.36 0.00 1 933.4
20260507015909 52 225 0.9 3.5 0.02 0.36 0.00 1 933.4
20260507015708 52 180 0.9 3.5 0.03 0.36 0.00 1 933.4
20260507015510 52 90 0.9 3.5 0.03 0.36 0.00 1 933.5
20260507015308 52 135 1.7 3.5 0.03 0.36 0.00 1 933.5
20260507015108 52 180 1.7 3.5 0.03 0.36 0.00 1 933.5
20260507014908 52 270 0.9 3.5 0.03 0.36 0.00 1 933.5
20260507014708 52 180 0.9 4.3 0.03 0.36 0.00 1 933.5
20260507014509 52 180 0.9 6.1 0.03 0.36 0.00 1 933.5
20260507014308 52 180 0.9 6.1 0.03 0.36 0.00 1 933.5
20260507014108 52 135 1.7 6.1 0.03 0.36 0.00 1 933.5
20260507013908 52 225 1.7 6.1 0.03 0.36 0.00 1 933.6
20260507013709 52 135 2.6 6.1 0.03 0.36 0.00 1 933.5
20260507013509 52 180 1.7 5.2 0.03 0.36 0.00 1 933.6
20260507013308 52 135 1.7 5.2 0.02 0.35 0.00 1 933.6
20260507013108 52 90 1.7 5.2 0.02 0.35 0.00 1 933.5
20260507012908 52 180 1.7 5.2 0.02 0.35 0.00 1 933.5
20260507012708 52 180 1.7 5.2 0.01 0.33 0.00 1 933.5
20260507012509 52 135 1.7 5.2 0.01 0.33 0.00 1 933.5
20260507012308 52 225 2.6 5.2 0.01 0.33 0.00 1 933.5
20260507012108 52 135 2.6 5.2 0.01 0.33 0.00 1 933.4
20260507011908 52 225 2.6 5.2 0.02 0.33 0.00 1 933.5
20260507011708 52 180 2.6 5.2 0.02 0.33 0.00 1 933.5
20260507011509 52 225 1.7 5.2 0.03 0.33 0.00 1 933.4
20260507011308 52 180 2.6 5.2 0.05 0.33 0.00 1 933.3
20260507011108 52 225 2.6 5.2 0.05 0.33 0.00 1 933.4
20260507010908 52 180 2.6 7.0 0.05 0.33 0.00 1 933.3
20260507010708 52 180 1.7 7.0 0.05 0.33 0.00 1 933.3
20260507010509 53 225 1.7 7.0 0.05 0.33 0.00 1 933.2
20260507010308 52 180 1.7 7.0 0.06 0.33 0.00 1 933.3
20260507010108 52 180 2.6 7.0 0.06 0.33 0.00 1 933.3
20260507005908 52 180 2.6 7.0 0.06 0.33 0.00 1 933.2
20260507005708 52 180 2.6 5.2 0.06 0.32 0.00 1 933.2
20260507005509 53 180 1.7 5.2 0.09 0.32 0.00 1 933.2
20260507005308 53 135 1.7 5.2 0.14 0.32 0.00 1 933.2
20260507005108 53 135 1.7 5.2 0.15 0.32 0.00 1 933.1
20260507004908 53 135 1.7 4.3 0.15 0.32 0.00 1 933.1
20260507004708 53 135 1.7 4.3 0.15 0.32 0.00 1 933.1
20260507004509 53 180 0.9 4.3 0.15 0.32 0.00 1 933.1
20260507004308 53 135 1.7 5.2 0.15 0.32 0.00 1 933.1
20260507004108 53 180 1.7 5.2 0.16 0.32 0.00 1 933.0
20260507003908 53 180 1.7 5.2 0.16 0.32 0.00 1 933.0
20260507003708 52 180 2.6 5.2 0.16 0.32 0.00 1 933.0
20260507003309 53 180 1.7 4.3 0.16 0.32 0.00 1 933.0
20260507003108 53 225 1.7 4.3 0.16 0.32 0.00 1 933.0
20260507002908 53 225 1.7 4.3 0.16 0.32 0.00 1 933.0
20260507002708 53 225 1.7 4.3 0.16 0.32 0.00 1 932.8
20260507002308 53 180 1.7 4.3 0.16 0.32 0.00 1 932.8
20260507002108 53 225 1.7 4.3 0.16 0.32 0.00 1 932.8
20260507001908 53 135 1.7 4.3 0.15 0.31 0.00 1 932.7
20260507001708 53 180 1.7 4.3 0.14 0.29 0.00 1 932.6
20260507001509 53 135 1.7 4.3 0.13 0.28 0.00 1 932.6
20260507001309 54 180 1.7 4.3 0.13 0.28 0.00 1
20260507001109 53 180 1.7 4.3 0.13 0.28 0.00 1
20260507000908 54 225 1.7 4.3 0.13 0.28 0.00 1
20260507000708 53 180 1.7 4.3 0.13 0.28 0.00 1
20260507000509 53 135 1.7 4.3 0.13 0.28 0.00 1 932.3
20260507000308 54 135 2.6 4.3 0.11 0.27 0.00 1 932.3
20260507000108 54 180 1.7 4.3 0.11 0.27 0.00 1 932.3
20260506235908 54 180 1.7 4.3 0.11 0.27 0.00 1 932.3
20260506235708 54 225 1.7 4.3 0.11 0.26 0.00 1 932.2
20260506235509 54 180 1.7 4.3 0.10 0.23 0.00 1 932.2
20260506235308 54 0 1.7 4.3 0.07 0.18 0.00 1 932.2
20260506235108 54 180 1.7 4.3 0.09 0.16 0.00 1 932.2
20260506234909 54 180 1.7 4.3 0.11 0.16 0.00 1 932.1
20260506234708 54 225 1.7 4.3 0.13 0.16 0.00 1 932.1
20260506234510 55 180 1.7 4.3 0.13 0.16 0.00 1 932.2
20260506234308 55 180 0.9 5.2 0.13 0.16 0.00 1 932.1
20260506233908 55 135 1.7 5.2 0.11 0.15 0.00 1 932.0
20260506233708 55 135 1.7 5.2 0.13 0.15 0.00 1 931.9
20260506233509 55 225 2.6 5.2 0.13 0.15 0.00 1 931.8
20260506233308 56 135 1.7 3.5 0.13 0.15 0.00 1 931.7
20260506233108 56 135 0.9 2.6 0.13 0.15 0.00 1 931.7
20260506232908 57 225 0.9 2.6 0.13 0.15 0.00 1 931.6
20260506232709 57 180 0.0 2.6 0.13 0.15 0.00 1 931.6
20260506232509 57 135 0.0 2.6 0.13 0.15 0.00 1 931.6
20260506232308 57 225 0.9 2.6 0.13 0.15 0.00 1 931.6
20260506232108 57 135 0.9 2.6 0.13 0.15 0.00 1 931.6
20260506231908 58 135 0.0 1.7 0.13 0.15 0.00 1 931.5
20260506231708 58 180 0.0 1.7 0.13 0.15 0.00 1 931.6
20260506231509 58 225 0.0 1.7 0.13 0.15 0.00 1 931.5
20260506231308 58 225 0.0 1.7 0.13 0.15 0.00 1 931.4
20260506231108 59 135 0.0 1.7 0.13 0.15 0.00 1 931.4
20260506230908 59 225 0.0 0.9 0.13 0.15 0.00 1 931.3
20260506230708 60 135 0.0 0.0 0.13 0.15 0.00 1 931.2
20260506230509 60 45 0.0 0.0 0.13 0.15 0.00 1 931.2
20260506230108 60 45 0.0 0.0 0.13 0.15 0.00 1 931.2
20260506225908 60 135 0.0 0.0 0.13 0.15 0.00 1 931.1
20260506225708 60 135 0.0 0.0 0.11 0.14 0.00 1 931.0
20260506225509 61 45 0.0 0.0 0.10 0.13 0.00 1 931.0
20260506225308 61 180 0.0 1.7 0.07 0.10 0.00 1 931.0
20260506225108 60 315 0.0 1.7 0.05 0.07 0.00 1 930.9
20260506224908 60 0 0.0 1.7 0.02 0.05 0.00 1 930.9
20260506224708 60 45 0.0 1.7 0.01 0.03 0.00 1 930.9
20260506224509 60 225 0.0 1.7 0.01 0.03 0.00 1 930.9
20260506224308 60 225 0.0 1.7 0.01 0.03 0.00 1 930.9
20260506224108 60 225 0.0 1.7 0.01 0.03 0.00 1 930.8
20260506223909 61 180 0.0 0.9 0.01 0.03 0.00 1 930.8
20260506223708 61 225 0.0 0.9 0.00 0.02 0.00 1 930.7
20260506223510 61 225 0.0 0.9 0.00 0.02 0.00 1 930.7
20260506223308 61 0 0.0 0.9 0.00 0.02 0.00 1 930.7
20260506223108 61 225 0.0 0.9 0.01 0.02 0.00 1 930.7
20260506222908 61 135 0.0 0.9 0.01 0.02 0.00 1 930.7
20260506222708 61 225 0.0 0.0 0.01 0.02 0.00 1 930.7
20260506222509 61 225 0.0 0.0 0.02 0.02 0.00 1 930.8
20260506222308 61 45 0.0 0.9 0.02 0.02 0.00 1 930.8
20260506222108 60 90 0.0 0.9 0.02 0.02 0.00 1 930.8
20260506221908 60 135 0.0 0.9 0.02 0.02 0.00 1 930.8
20260506221708 60 135 0.0 0.9 0.02 0.02 0.00 1 930.7
20260506221509 60 135 0.0 0.9 0.02 0.02 0.00 1 930.7
20260506221308 60 135 0.0 0.0 0.02 0.02 0.00 1 930.7
20260506221108 60 135 0.0 0.0 0.02 0.02 0.00 1 930.6
20260506220908 61 90 0.0 0.0 0.02 0.02 0.00 1 930.6
20260506220708 61 135 0.0 0.0 0.02 0.02 0.00 1 930.6
20260506220509 61 135 0.0 0.9 0.02 0.02 0.00 1 930.5
20260506220308 61 45 0.0 0.9 0.02 0.02 0.00 1 930.5
20260506220108 61 45 0.0 0.9 0.02 0.02 0.00 1 930.5
20260506215908 61 45 0.0 0.9 0.02 0.02 0.00 1 930.5
20260506215708 61 45 0.0 0.9 0.02 0.02 0.00 1 930.5
20260506215509 61 180 0.0 0.9 0.02 0.02 0.00 1 930.5
20260506215308 61 180 0.0 0.9 0.02 0.02 0.00 1 930.5
20260506215108 61 225 0.0 1.7 0.02 0.02 0.00 1 930.5
20260506214908 61 45 0.0 1.7 0.02 0.02 0.00 1 930.4
20260506214708 61 45 0.0 1.7 0.02 0.02 0.00 1 930.4
20260506214509 61 225 0.0 1.7 0.02 0.02 0.00 1 930.6
20260506214308 61 0 0.0 1.7 0.02 0.02 0.00 1 930.5
20260506214108 61 225 0.0 1.7 0.02 0.02 0.00 1 930.4
20260506213908 61 180 0.0 1.7 0.02 0.02 0.00 1 930.4
20260506213708 61 225 0.0 2.6 0.02 0.02 0.00 1 930.5
20260506213509 61 0 0.0 2.6 0.02 0.02 0.00 1 930.5
20260506213308 61 225 0.0 2.6 0.02 0.02 0.00 1 930.5
20260506213108 60 315 0.0 2.6 0.01 0.01 0.00 1 930.4
20260506212908 60 315 0.9 2.6 0.01 0.01 0.00 1 930.5
20260506212708 61 0 0.9 3.5 0.00 0.00 0.00 1 930.3
20260506212510 61 225 0.0 3.5 0.00 0.00 0.00 1 930.3
20260506212308 61 0 0.9 3.5 0.00 0.00 0.00 1 930.2
20260506212108 61 0 1.7 3.5 0.00 0.00 0.00 1 930.1
20260506211908 61 225 0.9 3.5 0.00 0.00 0.00 1 930.1
20260506211708 61 0 0.9 3.5 0.00 0.00 0.00 1 930.0
20260506211509 61 225 0.9 3.5 0.00 0.00 0.00 1 929.9
20260506211308 61 0 0.9 5.2 0.00 0.00 0.00 1 929.9
20260506211108 62 0 0.9 5.2 0.00 0.00 0.00 1 929.9
20260506210908 62 0 1.7 6.1 0.00 0.00 0.00 1 929.9
20260506210708 62 225 1.7 6.1 0.00 0.00 0.00 1 929.9
20260506210509 62 225 1.7 6.1 0.00 0.00 0.00 1 929.9
20260506210308 62 0 1.7 6.1 0.00 0.00 0.00 1 929.9
20260506210108 62 225 0.9 6.1 0.00 0.00 0.00 1 929.9
20260506205908 62 225 0.9 4.3 0.00 0.00 0.00 1 929.9
20260506205708 63 225 0.9 4.3 0.00 0.00 0.00 1 929.9
20260506205509 63 0 0.9 4.3 0.00 0.00 0.00 1 929.9
20260506205308 63 90 0.0 2.6 0.00 0.00 0.00 1 929.8
20260506205108 63 0 0.0 4.3 0.00 0.00 0.00 1 929.8
20260506204908 63 225 0.9 4.3 0.00 0.00 0.00 1 929.8
20260506204708 63 135 0.9 4.3 0.00 0.00 0.00 1 929.9
20260506204509 63 0 0.0 4.3 0.00 0.00 0.00 1 929.8
20260506204308 63 0 0.9 4.3 0.00 0.00 0.00 1 929.8
20260506204108 63 135 0.0 2.6 0.00 0.00 0.00 1 929.8
20260506203909 63 45 0.0 5.2 0.00 0.00 0.00 1 929.7
20260506203708 63 225 0.0 5.2 0.00 0.00 0.00 1 929.7
20260506203510 63 315 0.0 5.2 0.00 0.00 0.00 1 929.8
20260506203308 63 0 0.0 5.2 0.00 0.00 0.00 1 929.9
20260506203108 63 225 1.7 5.2 0.00 0.00 0.00 1 929.9
20260506202908 63 0 0.9 7.0 0.00 0.00 0.00 1 929.8
20260506202708 63 225 0.9 7.0 0.00 0.00 0.00 1 929.8
20260506202509 63 0 0.9 7.0 0.00 0.00 0.00 1 929.8
20260506202308 63 135 1.7 7.0 0.00 0.00 0.00 1 929.8
20260506202108 63 0 1.7 7.0 0.00 0.00 0.00 1 929.8
20260506201908 63 315 0.0 4.3 0.00 0.00 0.00 1 929.8
20260506201708 63 45 0.0 5.2 0.00 0.00 0.00 1 929.7
20260506201509 63 225 0.9 5.2 0.00 0.00 0.00 1 929.7
20260506201308 62 0 1.7 5.2 0.00 0.00 0.00 1 929.7
20260506201108 63 0 1.7 5.2 0.00 0.00 0.00 1 929.7
20260506200908 63 225 2.6 5.2 0.00 0.00 0.00 1 929.7
20260506200708 63 225 2.6 5.2 0.00 0.00 0.00 1 929.7
20260506200509 63 0 2.6 5.2 0.00 0.00 0.00 1 929.8
20260506200308 63 225 2.6 5.2 0.00 0.00 0.00 1 929.8
20260506200108 63 0 0.9 5.2 0.00 0.00 0.00 1 929.8
20260506195908 63 225 1.7 5.2 0.00 0.00 0.00 1 929.8
20260506195708 63 0 2.6 5.2 0.00 0.00 0.00 1 929.8
20260506195509 63 225 1.7 5.2 0.00 0.00 0.00 1 929.8
20260506195308 63 0 1.7 5.2 0.00 0.00 0.00 1 929.9
20260506195109 63 225 2.6 5.2 0.00 0.00 0.00 1 929.9
20260506194908 63 180 2.6 5.2 0.00 0.00 0.00 1 929.9
20260506194708 63 225 1.7 5.2 0.00 0.00 0.00 1 930.0
20260506194510 63 45 0.9 5.2 0.00 0.00 0.00 1 930.0
20260506194308 63 180 1.7 6.1 0.00 0.00 0.00 1 930.0
20260506194108 63 0 1.7 6.1 0.00 0.00 0.00 1 930.1
20260506193908 63 0 2.6 6.1 0.00 0.00 0.00 1 930.2
20260506193708 63 225 1.7 6.1 0.00 0.00 0.00 1 930.2
20260506193509 63 0 2.6 6.1 0.00 0.00 0.00 99 930.1
20260506193308 64 0 1.7 5.2 0.00 0.00 0.00 99 930.2
20260506193108 63 90 0.9 6.1 0.00 0.00 0.00 99 930.1
20260506192908 63 0 1.7 6.1 0.00 0.00 0.00 99 930.1
20260506192709 63 315 1.7 6.1 0.00 0.00 0.00 99 930.1
20260506192509 64 225 1.7 6.1 0.00 0.00 0.00 99 930.2
20260506192308 63 225 2.6 6.1 0.00 0.00 0.00 99 930.1
20260506192108 64 0 1.7 5.2 0.00 0.00 0.00 99 930.1
20260506191908 64 225 1.7 5.2 0.00 0.00 0.00 99 930.2
20260506191708 64 225 1.7 5.2 0.00 0.00 0.00 99 930.1
20260506191509 64 225 0.9 5.2 0.00 0.00 0.00 99 930.2
20260506191308 64 0 1.7 5.2 0.00 0.00 0.00 99 930.3
20260506191108 64 225 2.6 5.2 0.00 0.00 0.00 99 930.3
20260506190908 64 225 1.7 6.1 0.00 0.00 0.00 99 930.3
20260506190708 64 225 2.6 6.1 0.00 0.00 0.00 99 930.4
20260506190509 64 0 0.9 6.1 0.00 0.00 0.00 99 930.4
20260506190309 64 225 2.6 6.1 0.00 0.00 0.00 99 930.3
20260506190108 64 225 2.6 6.1 0.00 0.00 0.00 99 930.3
20260506185908 65 225 1.7 3.5 0.00 0.00 0.00 99 930.3
20260506185708 65 225 1.7 3.5 0.00 0.00 0.00 99 930.2
20260506185509 65 45 1.7 4.3 0.00 0.00 0.00 99 930.1
20260506185308 65 225 1.7 4.3 0.00 0.00 0.00 99 930.1
20260506185108 65 90 0.9 5.2 0.00 0.00 0.00 99 930.0
20260506184908 65 180 0.9 5.2 0.00 0.00 0.00 99 930.0
20260506184708 65 225 0.0 5.2 0.00 0.00 0.00 99 930.0
20260506184509 65 0 0.9 5.2 0.00 0.00 0.00 99 930.1
20260506184308 65 225 2.6 6.1 0.00 0.00 0.00 99 930.1
20260506184108 65 0 2.6 6.1 0.00 0.00 0.00 99 930.1
20260506183909 65 225 1.7 6.1 0.00 0.00 0.00 99 930.2
20260506183708 65 315 1.7 6.1 0.00 0.00 0.00 99 930.2
20260506183510 65 225 2.6 7.0 0.00 0.00 0.00 99 930.1
20260506183308 65 0 2.6 7.0 0.00 0.00 0.00 99 930.2
20260506183108 65 0 1.7 7.0 0.00 0.00 0.00 99 930.2
20260506182908 65 315 2.6 7.0 0.00 0.00 0.00 99 930.2
20260506182708 65 225 3.5 7.8 0.00 0.00 0.00 99 930.1
20260506182509 66 0 2.6 7.8 0.00 0.00 0.00 99 930.3
20260506182308 66 0 2.6 7.8 0.00 0.00 0.00 99 930.2
20260506182108 66 0 1.7 7.8 0.00 0.00 0.00 99 930.1
20260506181908 66 0 2.6 7.8 0.00 0.00 0.00 99 930.1
20260506181708 66 225 2.6 6.1 0.00 0.00 0.00 99 930.2
20260506181509 66 0 1.7 6.1 0.00 0.00 0.00 99 930.2
20260506181308 66 0 1.7 6.1 0.00 0.00 0.00 99 930.3
20260506181108 66 225 2.6 6.1 0.00 0.00 0.00 99 930.3
20260506180908 66 225 2.6 6.1 0.00 0.00 0.00 99 930.2
20260506180708 66 225 2.6 6.1 0.00 0.00 0.00 99 930.3
20260506180509 66 225 2.6 6.1 0.00 0.00 0.00 99 930.3
20260506180308 66 0 2.6 6.1 0.00 0.00 0.00 99 930.3
20260506180108 66 0 2.6 7.0 0.00 0.00 0.00 99 930.3
20260506175908 66 225 2.6 7.0 0.00 0.00 0.00 99 930.4
20260506175708 66 225 1.7 7.0 0.00 0.00 0.00 99 930.4
20260506175509 66 180 2.6 7.0 0.00 0.00 0.00 99 930.4
20260506175308 66 225 2.6 7.0 0.00 0.00 0.00 99 930.4
20260506175109 66 225 2.6 5.2 0.00 0.00 0.00 99 930.4
20260506174908 67 0 1.7 5.2 0.00 0.00 0.00 99 930.5
20260506174708 67 225 1.7 5.2 0.00 0.00 0.00 99 930.6
20260506174510 67 180 2.6 5.2 0.00 0.00 0.00 99 930.6
20260506174308 67 0 2.6 5.2 0.00 0.00 0.00 99 930.6
20260506174108 67 225 1.7 5.2 0.00 0.00 0.00 99 930.7
20260506173908 67 0 0.9 5.2 0.00 0.00 0.00 99 930.6
20260506173708 67 225 1.7 5.2 0.00 0.00 0.00 99 930.7
20260506173509 67 225 0.9 5.2 0.00 0.00 0.00 99 930.8
20260506173308 67 0 2.6 5.2 0.00 0.00 0.00 99 930.7
20260506173108 67 315 1.7 5.2 0.00 0.00 0.00 99 930.7
20260506172908 67 0 0.9 3.5 0.00 0.00 0.00 99 930.8
20260506172708 67 0 1.7 4.3 0.00 0.00 0.00 99 930.8
20260506172509 67 0 1.7 5.2 0.00 0.00 0.00 99 930.7
20260506172308 67 0 0.9 5.2 0.00 0.00 0.00 99 930.7
20260506172108 67 0 1.7 5.2 0.00 0.00 0.00 99 930.6
20260506171908 67 0 2.6 5.2 0.00 0.00 0.00 99 930.6
20260506171708 67 0 2.6 5.2 0.00 0.00 0.00 99 930.6
20260506171509 67 0 1.7 4.3 0.00 0.00 0.00 99 930.5
20260506171308 67 225 1.7 4.3 0.00 0.00 0.00 99 930.4
20260506171108 68 315 1.7 4.3 0.00 0.00 0.00 99 930.5
20260506170908 68 315 0.9 4.3 0.00 0.00 0.00 99 930.6
20260506170708 68 315 1.7 4.3 0.00 0.00 0.00 99 930.6
20260506170509 68 225 1.7 4.3 0.00 0.00 0.00 99 930.7
20260506170308 68 0 1.7 5.2 0.00 0.00 0.00 99 930.6
20260506170109 67 315 1.7 5.2 0.00 0.00 0.00 99 930.6
20260506165908 67 315 1.7 5.2 0.00 0.00 0.00 99 930.7
20260506165708 67 225 2.6 5.2 0.00 0.00 0.00 99 930.6
20260506165510 68 0 1.7 5.2 0.00 0.00 0.00 99 930.6
20260506165308 68 0 1.7 5.2 0.00 0.00 0.00 99 930.6
20260506165108 68 0 2.6 5.2 0.00 0.00 0.00 99 930.6
20260506164908 68 0 1.7 6.1 0.00 0.00 0.00 99 930.5
20260506164708 68 225 1.7 6.1 0.00 0.00 0.00 99 930.4
20260506164509 67 0 2.6 6.1 0.00 0.00 0.00 99 930.3
20260506164308 68 315 2.6 6.1 0.00 0.00 0.00 99 930.4
20260506164108 68 0 2.6 6.1 0.00 0.00 0.00 99 930.4
20260506163908 68 225 2.6 6.1 0.00 0.00 0.00 99 930.4
20260506163708 69 225 2.6 6.1 0.00 0.00 0.00 99 930.5
20260506163509 69 225 2.6 6.1 0.00 0.00 0.00 99 930.3
20260506163308 70 0 2.6 5.2 0.00 0.00 0.00 99 930.0
20260506163108 70 90 1.7 5.2 0.00 0.00 0.00 99 929.9
20260506162908 70 0 2.6 7.0 0.00 0.00 0.00 99 930.0
20260506162708 70 0 2.6 7.8 0.00 0.00 0.00 99 930.1
20260506162509 70 225 2.6 7.8 0.00 0.00 0.00 99 930.0
20260506162308 71 0 2.6 7.8 0.00 0.00 0.00 99 930.1
20260506162108 71 225 3.5 7.8 0.00 0.00 0.00 99 930.3
20260506161908 71 180 2.6 7.8 0.00 0.00 0.00 99 930.2
20260506161708 71 225 2.6 6.1 0.00 0.00 0.00 99 930.1
20260506161509 71 225 2.6 6.1 0.00 0.00 0.00 99 930.1
20260506161308 71 0 2.6 7.0 0.00 0.00 0.00 99 930.0
20260506161109 71 180 2.6 8.7 0.00 0.00 0.00 99 930.0
20260506160908 70 225 2.6 8.7 0.00 0.00 0.00 99 929.9
20260506160708 70 225 2.6 8.7 0.00 0.00 0.00 99 929.9
20260506160510 70 225 3.5 8.7 0.00 0.00 0.00 99 929.8
20260506160308 70 225 3.5 8.7 0.00 0.00 0.00 99 929.8